M I D A S
Marine Information and Data Acquisition System
Tripno 1810 of the Zeeleeuw from 2009-11-19 08:28:57 to 2009-11-19 13:29:36
Back to CruiseResearch ActivitiesStationsMapUnderway DataData graphs

EquipmentUnitsComments
TimeDGPSUTC
LatitudeDGPSDM.mWGS84
LongitudeDGPSDM.mWGS84
SpeedMeteo Stationm/sRelative wind speed
DirectionMeteo StationdegRelative wind direction
TemperatureMeteo Stationdeg CelciusAir temperature
PressureMeteo StationPaAtmospheric pressure
HumidityMeteo Station%Relative humidity
Missing or incorrect values are displayed as -999
Metereological data collected by the RV Zeeleeuw from 2009-11-19 08:31:40 to 2009-11-19 13:47:33
                                                                                    Next 1000 lines
Time Latitude Longitude Speed Direction Temperature Pressure Humidity
2009-11-19 08:31:50 51°13.662 2°55.955 2.2 16 9.1 101720 44
2009-11-19 08:31:55 51°13.663 2°55.952 2 10 9.1 101720 44
2009-11-19 08:32:00 51°13.664 2°55.948 1.8 349 9.1 101720 44
2009-11-19 08:32:05 51°13.666 2°55.943 2.4 347 9.1 101720 41
2009-11-19 08:32:11 51°13.668 2°55.937 3.3 32 9.1 101720 41
2009-11-19 08:32:17 51°13.67 2°55.929 4.2 28 9 101720 43
2009-11-19 08:32:23 51°13.672 2°55.921 4.8 22 9 101720 43
2009-11-19 08:32:28 51°13.674 2°55.914 4.8 20 9.1 101720 41
2009-11-19 08:32:33 51°13.676 2°55.907 6.1 19 9.1 101720 41
2009-11-19 08:32:39 51°13.678 2°55.897 3.4 13 9.1 101720 43
2009-11-19 08:32:44 51°13.679 2°55.889 3.8 36 9.1 101720 43
2009-11-19 08:32:49 51°13.681 2°55.881 3.3 21 9.1 101720 39
2009-11-19 08:32:53 51°13.682 2°55.875 4.5 38 9.1 101720 39
2009-11-19 08:32:58 51°13.684 2°55.867 5.9 18 9.1 101720 39
2009-11-19 08:33:04 51°13.685 2°55.857 3.2 19 9.1 101720 39
2009-11-19 08:33:09 51°13.686 2°55.85 4.8 37 9.1 101720 42
2009-11-19 08:33:14 51°13.687 2°55.842 4.7 43 9.1 101720 42
2009-11-19 08:33:18 51°13.688 2°55.836 4.4 29 9.1 101720 45
2009-11-19 08:33:24 51°13.689 2°55.827 6 42 9.1 101720 45
2009-11-19 08:33:29 51°13.69 2°55.82 6.1 15 9.1 101720 45
2009-11-19 08:33:34 51°13.691 2°55.812 5.1 16 9.1 101720 45
2009-11-19 08:33:39 51°13.692 2°55.806 3.4 43 9.1 101710 45
2009-11-19 08:33:44 51°13.693 2°55.799 4 35 9.1 101710 45
2009-11-19 08:33:49 51°13.694 2°55.792 4.3 15 9.1 101720 42
2009-11-19 08:33:54 51°13.694 2°55.786 3 39 9.1 101720 42
2009-11-19 08:33:59 51°13.695 2°55.78 4.3 38 9.1 101720 40
2009-11-19 08:34:04 51°13.695 2°55.774 4 35 9.1 101720 40
2009-11-19 08:34:08 51°13.696 2°55.77 4.4 43 9.1 101720 44
2009-11-19 08:34:14 51°13.696 2°55.764 2.9 29 9.1 101720 44
2009-11-19 08:34:19 51°13.696 2°55.762 3.3 24 9.1 101720 42
2009-11-19 08:34:24 51°13.697 2°55.761 4.6 32 9.1 101720 42
2009-11-19 08:34:28 51°13.697 2°55.76 2.1 25 9.1 101710 39
2009-11-19 08:34:33 51°13.698 2°55.759 5 37 9.1 101710 39
2009-11-19 08:34:38 51°13.698 2°55.759 5.3 43 9.1 101720 38
2009-11-19 08:34:43 51°13.699 2°55.759 4.8 43 9.1 101720 38
2009-11-19 08:34:48 51°13.7 2°55.758 5.3 44 9.1 101710 41
2009-11-19 08:34:53 51°13.7 2°55.758 4.2 42 9.1 101710 41
2009-11-19 08:34:57 51°13.701 2°55.758 5.5 37 9.1 101720 39
2009-11-19 08:35:02 51°13.701 2°55.758 6.7 43 9.1 101720 39
2009-11-19 08:35:07 51°13.701 2°55.756 6.9 23 9.1 101720 38
2009-11-19 08:35:12 51°13.7 2°55.754 5 79 9.1 101720 38
2009-11-19 08:35:17 51°13.699 2°55.752 3.9 22 9.1 101720 38
2009-11-19 08:35:22 51°13.697 2°55.75 5.7 76 9.1 101720 38
2009-11-19 08:35:26 51°13.696 2°55.748 4.9 25 9.1 101720 40
2009-11-19 08:35:31 51°13.695 2°55.746 4.8 75 9.1 101720 40
2009-11-19 08:35:36 51°13.693 2°55.744 5.7 22 9.1 101720 45
2009-11-19 08:35:42 51°13.693 2°55.743 4.3 80 9.1 101720 45
2009-11-19 08:35:48 51°13.693 2°55.742 3.3 26 9.1 101720 45
2009-11-19 08:35:53 51°13.694 2°55.742 2.5 80 9.1 101720 45
2009-11-19 08:35:59 51°13.696 2°55.742 4.3 21 9.1 101730 45
2009-11-19 08:36:04 51°13.698 2°55.741 7.6 81 9.1 101730 45
2009-11-19 08:36:09 51°13.7 2°55.74 5.7 26 9.1 101720 41
2009-11-19 08:36:13 51°13.702 2°55.738 6.1 80 9.1 101720 41
2009-11-19 08:36:18 51°13.706 2°55.736 5 259 9.1 101720 39
2009-11-19 08:36:23 51°13.71 2°55.733 6 80 9.1 101720 39
2009-11-19 08:36:28 51°13.714 2°55.729 6.6 21 9.1 101730 45
2009-11-19 08:36:33 51°13.719 2°55.725 5.8 280 9.1 101730 45
2009-11-19 08:36:38 51°13.724 2°55.72 2.7 28 9.1 101740 38
2009-11-19 08:36:43 51°13.73 2°55.715 2 79 9.1 101740 38
2009-11-19 08:36:47 51°13.735 2°55.711 1 15 9.1 101730 45
2009-11-19 08:36:52 51°13.742 2°55.705 0.3 81 9.1 101730 45
2009-11-19 08:36:57 51°13.749 2°55.699 0.1 24 9.1 101730 45
2009-11-19 08:37:02 51°13.756 2°55.692 0.1 282 9.1 101730 45
2009-11-19 08:37:07 51°13.763 2°55.686 0.4 340 9.1 101730 40
2009-11-19 08:37:12 51°13.772 2°55.679 3.6 283 9.1 101730 40
2009-11-19 08:37:16 51°13.778 2°55.674 1.9 23 9.1 101720 40
2009-11-19 08:37:21 51°13.786 2°55.667 0.6 285 9.1 101720 40
2009-11-19 08:37:26 51°13.795 2°55.66 0.1 269 9.1 101720 45
2009-11-19 08:37:31 51°13.804 2°55.653 0.1 280 9.1 101720 45
2009-11-19 08:37:36 51°13.812 2°55.646 2.8 18 9.1 101710 41
2009-11-19 08:37:41 51°13.822 2°55.638 4.8 82 9.1 101710 41
2009-11-19 08:37:45 51°13.829 2°55.633 5.4 26 9.1 101710 42
2009-11-19 08:37:50 51°13.838 2°55.626 2.9 280 9.1 101710 42
2009-11-19 08:37:55 51°13.848 2°55.618 2.3 259 9.1 101720 45
2009-11-19 08:38:00 51°13.858 2°55.611 1 282 9.1 101720 45
2009-11-19 08:38:05 51°13.868 2°55.604 2.9 24 9.1 101720 38
2009-11-19 08:38:10 51°13.878 2°55.596 5 78 9.1 101720 38
2009-11-19 08:38:15 51°13.888 2°55.588 1.9 247 9.1 101720 42
2009-11-19 08:38:20 51°13.898 2°55.581 1.6 286 9.1 101720 42
2009-11-19 08:38:25 51°13.908 2°55.573 4.2 21 9.1 101710 39
2009-11-19 08:38:30 51°13.918 2°55.565 2.8 279 9.1 101710 39
2009-11-19 08:38:35 51°13.929 2°55.558 2.2 24 9.1 101720 37
2009-11-19 08:38:40 51°13.939 2°55.549 1.8 81 9.1 101720 37
2009-11-19 08:38:45 51°13.95 2°55.542 2.3 270 9.1 101710 45
2009-11-19 08:38:50 51°13.96 2°55.534 1.4 77 9.1 101710 45
2009-11-19 08:38:55 51°13.971 2°55.526 0.4 17 9.2 101710 41
2009-11-19 08:39:00 51°13.981 2°55.519 0.1 283 9.2 101710 41
2009-11-19 08:39:05 51°13.992 2°55.512 3.9 260 9.2 101710 40
2009-11-19 08:39:10 51°14.003 2°55.504 3.1 281 9.2 101710 40
2009-11-19 08:39:15 51°14.014 2°55.496 2.1 269 9.2 101710 41
2009-11-19 08:39:20 51°14.024 2°55.488 2.9 279 9.2 101710 41
2009-11-19 08:39:25 51°14.035 2°55.48 3.1 248 9.2 101710 38
2009-11-19 08:39:30 51°14.046 2°55.472 1.5 283 9.2 101710 38
2009-11-19 08:39:35 51°14.056 2°55.464 1.1 262 9.2 101720 43
2009-11-19 08:39:40 51°14.067 2°55.457 0.3 278 9.2 101720 43
2009-11-19 08:39:45 51°14.078 2°55.448 0.1 263 9.2 101710 44
2009-11-19 08:39:50 51°14.088 2°55.44 0.1 282 9.2 101710 44
2009-11-19 08:39:55 51°14.098 2°55.432 1.3 31 9.2 101710 42
2009-11-19 08:40:00 51°14.109 2°55.424 4.9 80 9.2 101710 42
2009-11-19 08:40:05 51°14.119 2°55.416 2.6 267 9.2 101710 42
2009-11-19 08:40:10 51°14.13 2°55.407 1.5 284 9.2 101710 42
2009-11-19 08:40:15 51°14.14 2°55.398 2.3 248 9.2 101710 42
2009-11-19 08:40:20 51°14.15 2°55.389 2.9 280 9.2 101710 42
2009-11-19 08:40:25 51°14.16 2°55.38 2.7 265 9.2 101720 42
2009-11-19 08:40:30 51°14.17 2°55.37 2.2 283 9.2 101720 42
2009-11-19 08:40:35 51°14.18 2°55.36 2.8 254 9.2 101710 46
2009-11-19 08:40:40 51°14.189 2°55.349 7.4 284 9.2 101710 46
2009-11-19 08:40:45 51°14.199 2°55.338 4.8 251 9.2 101710 38
2009-11-19 08:40:50 51°14.208 2°55.326 3.4 281 9.2 101710 38
2009-11-19 08:40:55 51°14.217 2°55.314 5.3 322 9.2 101710 42
2009-11-19 08:41:00 51°14.225 2°55.302 6.2 279 9.2 101710 42
2009-11-19 08:41:05 51°14.234 2°55.289 6.7 20 9.2 101720 39
2009-11-19 08:41:10 51°14.242 2°55.276 7.8 282 9.2 101720 39
2009-11-19 08:41:15 51°14.25 2°55.263 9.2 19 9.2 101710 44
2009-11-19 08:41:20 51°14.258 2°55.249 6.8 281 9.2 101710 44
2009-11-19 08:41:25 51°14.267 2°55.235 6 18 9.2 101700 42
2009-11-19 08:41:30 51°14.275 2°55.221 6 283 9.2 101700 42
2009-11-19 08:41:35 51°14.283 2°55.206 5.3 23 9.2 101700 43
2009-11-19 08:41:40 51°14.291 2°55.191 6.4 286 9.2 101700 43
2009-11-19 08:41:45 51°14.299 2°55.176 5.3 25 9.2 101690 44
2009-11-19 08:41:50 51°14.308 2°55.161 6.9 282 9.2 101690 44
2009-11-19 08:41:54 51°14.315 2°55.149 6.3 24 9.2 101700 38
2009-11-19 08:42:00 51°14.325 2°55.131 6.5 285 9.2 101700 38
2009-11-19 08:42:05 51°14.334 2°55.116 5.5 246 9.2 101710 44
2009-11-19 08:42:10 51°14.343 2°55.1 6.6 279 9.2 101710 44
2009-11-19 08:42:14 51°14.35 2°55.087 7.6 26 9.2 101700 44
2009-11-19 08:42:20 51°14.36 2°55.067 9 283 9.2 101700 44
2009-11-19 08:42:25 51°14.369 2°55.051 8.8 23 9.2 101700 44
2009-11-19 08:42:31 51°14.38 2°55.031 9.5 284 9.2 101700 44
2009-11-19 08:42:34 51°14.386 2°55.021 7.4 26 9.2 101700 43
2009-11-19 08:42:39 51°14.396 2°55.004 7.6 279 9.2 101700 43
2009-11-19 08:42:45 51°14.407 2°54.983 9.1 246 9.2 101690 43
2009-11-19 08:42:49 51°14.415 2°54.97 9 281 9.2 101690 43
2009-11-19 08:42:54 51°14.426 2°54.954 8.9 255 9.2 101680 44
2009-11-19 08:42:59 51°14.438 2°54.939 12.1 278 9.2 101680 44
2009-11-19 08:43:04 51°14.45 2°54.924 8.3 262 9.2 101690 40
2009-11-19 08:43:09 51°14.462 2°54.911 6.1 282 9.2 101690 40
2009-11-19 08:43:14 51°14.474 2°54.897 5.2 263 9.3 101690 40
2009-11-19 08:43:20 51°14.489 2°54.881 8.1 285 9.3 101690 40
2009-11-19 08:43:25 51°14.501 2°54.868 5.6 263 9.3 101700 39
2009-11-19 08:43:30 51°14.514 2°54.855 4.3 281 9.3 101700 39
2009-11-19 08:43:35 51°14.527 2°54.844 5.2 253 9.2 101700 39
2009-11-19 08:43:40 51°14.54 2°54.833 3.5 286 9.2 101700 39
2009-11-19 08:43:45 51°14.554 2°54.823 6.2 260 9.3 101720 39
2009-11-19 08:43:50 51°14.567 2°54.812 7.2 284 9.3 101720 39
2009-11-19 08:43:55 51°14.58 2°54.801 4 262 9.3 101710 40
2009-11-19 08:44:00 51°14.593 2°54.79 7.3 280 9.3 101710 40
2009-11-19 08:44:05 51°14.607 2°54.78 5.3 263 9.3 101710 39
2009-11-19 08:44:10 51°14.62 2°54.769 7 283 9.3 101710 39
2009-11-19 08:44:15 51°14.633 2°54.759 7.7 256 9.3 101710 45
2009-11-19 08:44:21 51°14.65 2°54.745 6.4 283 9.3 101710 45
2009-11-19 08:44:25 51°14.661 2°54.737 4 260 9.3 101710 44
2009-11-19 08:44:30 51°14.674 2°54.727 4.9 281 9.3 101710 44
2009-11-19 08:44:35 51°14.688 2°54.716 5.2 262 9.3 101710 42
2009-11-19 08:44:40 51°14.701 2°54.706 4.6 281 9.3 101710 42
2009-11-19 08:44:45 51°14.715 2°54.696 5.6 263 9.3 101720 44
2009-11-19 08:44:50 51°14.729 2°54.685 5 284 9.3 101720 44
2009-11-19 08:44:55 51°14.742 2°54.675 6.2 260 9.3 101710 45
2009-11-19 08:45:00 51°14.756 2°54.665 5.8 283 9.3 101710 45
2009-11-19 08:45:05 51°14.77 2°54.655 7.4 259 9.3 101720 41
2009-11-19 08:45:10 51°14.783 2°54.645 7.9 281 9.3 101720 41
2009-11-19 08:45:15 51°14.797 2°54.634 5.2 264 9.4 101720 45
2009-11-19 08:45:20 51°14.811 2°54.624 3.1 279 9.4 101720 45
2009-11-19 08:45:25 51°14.824 2°54.614 7.3 259 9.3 101710 45
2009-11-19 08:45:30 51°14.838 2°54.604 6.5 286 9.3 101710 45
2009-11-19 08:45:35 51°14.851 2°54.594 5.7 259 9.4 101710 44
2009-11-19 08:45:40 51°14.865 2°54.584 7.1 285 9.4 101710 44
2009-11-19 08:45:45 51°14.879 2°54.574 5 262 9.3 101710 39
2009-11-19 08:45:50 51°14.892 2°54.564 3.6 282 9.3 101710 39
2009-11-19 08:45:55 51°14.906 2°54.553 4.9 265 9.4 101710 39
2009-11-19 08:45:58 51°14.914 2°54.547 5.4 286 9.4 101710 39
2009-11-19 08:46:05 51°14.933 2°54.533 3.9 264 9.4 101710 41
2009-11-19 08:46:10 51°14.947 2°54.523 4.5 280 9.4 101710 41
2009-11-19 08:46:15 51°14.961 2°54.513 6.1 260 9.3 101710 42
2009-11-19 08:46:20 51°14.974 2°54.503 6 279 9.3 101710 42
2009-11-19 08:46:25 51°14.988 2°54.493 5.7 266 9.3 101720 40
2009-11-19 08:46:30 51°15.001 2°54.483 6.3 279 9.3 101720 40
2009-11-19 08:46:34 51°15.012 2°54.475 7.7 268 9.4 101720 39
2009-11-19 08:46:40 51°15.029 2°54.462 7.1 284 9.4 101720 39
2009-11-19 08:46:45 51°15.042 2°54.452 6.7 269 9.3 101720 45
2009-11-19 08:46:50 51°15.056 2°54.442 5.6 285 9.3 101720 45
2009-11-19 08:46:55 51°15.069 2°54.432 6.2 265 9.3 101720 45
2009-11-19 08:47:00 51°15.083 2°54.422 7 285 9.3 101720 45
2009-11-19 08:47:05 51°15.098 2°54.411 6.3 266 9.3 101720 43
2009-11-19 08:47:10 51°15.111 2°54.401 6.2 286 9.3 101720 43
2009-11-19 08:47:15 51°15.125 2°54.391 7 22 9.3 101720 39
2009-11-19 08:47:20 51°15.138 2°54.381 7.4 289 9.3 101720 39
2009-11-19 08:47:25 51°15.151 2°54.37 4.2 261 9.3 101710 45
2009-11-19 08:47:30 51°15.165 2°54.36 5.7 284 9.3 101710 45
2009-11-19 08:47:35 51°15.177 2°54.35 7.3 261 9.3 101700 44
2009-11-19 08:47:40 51°15.19 2°54.339 6.5 283 9.3 101700 44
2009-11-19 08:47:45 51°15.204 2°54.329 5.9 265 9.3 101720 45
2009-11-19 08:47:50 51°15.217 2°54.318 4.3 279 9.3 101720 45
2009-11-19 08:47:55 51°15.23 2°54.307 4.6 265 9.3 101710 45
2009-11-19 08:48:00 51°15.243 2°54.297 5.7 281 9.3 101710 45
2009-11-19 08:48:05 51°15.256 2°54.286 4.7 265 9.3 101700 39
2009-11-19 08:48:10 51°15.269 2°54.276 6.8 280 9.3 101700 39
2009-11-19 08:48:15 51°15.282 2°54.265 5.3 264 9.3 101710 40
2009-11-19 08:48:20 51°15.296 2°54.255 5.6 284 9.3 101710 40
2009-11-19 08:48:25 51°15.309 2°54.244 6 266 9.4 101710 39
2009-11-19 08:48:30 51°15.322 2°54.234 5.2 284 9.4 101710 39
2009-11-19 08:48:35 51°15.335 2°54.223 5.9 260 9.3 101720 41
2009-11-19 08:48:40 51°15.348 2°54.213 6.9 279 9.3 101720 41
2009-11-19 08:48:45 51°15.362 2°54.203 6.2 263 9.3 101730 45
2009-11-19 08:48:50 51°15.375 2°54.192 7.6 281 9.3 101730 45
2009-11-19 08:48:55 51°15.388 2°54.182 7.6 267 9.3 101710 44
2009-11-19 08:49:00 51°15.401 2°54.171 7.8 282 9.3 101710 44
2009-11-19 08:49:05 51°15.414 2°54.161 5.2 263 9.3 101720 43
2009-11-19 08:49:10 51°15.427 2°54.15 6.3 280 9.3 101720 43
2009-11-19 08:49:15 51°15.44 2°54.14 5.8 262 9.3 101740 40
2009-11-19 08:49:20 51°15.454 2°54.129 4.1 285 9.3 101740 40
2009-11-19 08:49:25 51°15.467 2°54.119 5.3 258 9.3 101730 39
2009-11-19 08:49:30 51°15.48 2°54.107 6.4 286 9.3 101730 39
2009-11-19 08:49:35 51°15.493 2°54.097 4.2 263 9.3 101710 41
2009-11-19 08:49:40 51°15.506 2°54.086 4.7 281 9.3 101710 41
2009-11-19 08:49:45 51°15.519 2°54.076 6.4 269 9.3 101720 41
2009-11-19 08:49:50 51°15.533 2°54.065 5.9 284 9.3 101720 41
2009-11-19 08:49:55 51°15.546 2°54.055 4.7 264 9.4 101710 39
2009-11-19 08:50:00 51°15.558 2°54.043 4.6 281 9.4 101710 39
2009-11-19 08:50:05 51°15.572 2°54.033 4.5 263 9.4 101710 40
2009-11-19 08:50:10 51°15.585 2°54.022 4.1 303 9.4 101710 40
2009-11-19 08:50:15 51°15.598 2°54.012 5.9 260 9.4 101710 39
2009-11-19 08:50:20 51°15.611 2°54 5.5 284 9.4 101710 39
2009-11-19 08:50:25 51°15.624 2°53.989 6.5 263 9.4 101720 40
2009-11-19 08:50:30 51°15.638 2°53.978 8 286 9.4 101720 40
2009-11-19 08:50:35 51°15.65 2°53.967 7.6 269 9.4 101720 39
2009-11-19 08:50:40 51°15.663 2°53.956 5.9 282 9.4 101720 39
2009-11-19 08:50:45 51°15.676 2°53.944 7.2 270 9.4 101710 42
2009-11-19 08:50:50 51°15.689 2°53.934 6.8 281 9.4 101710 42
2009-11-19 08:50:54 51°15.7 2°53.925 4.5 264 9.4 101720 43
2009-11-19 08:51:00 51°15.715 2°53.911 6.9 284 9.4 101720 43
2009-11-19 08:51:05 51°15.728 2°53.9 6.7 264 9.4 101720 43
2009-11-19 08:51:10 51°15.74 2°53.889 6.9 279 9.4 101720 43
2009-11-19 08:51:14 51°15.75 2°53.881 5.2 265 9.4 101710 43
2009-11-19 08:51:20 51°15.766 2°53.868 7.9 284 9.4 101710 43
2009-11-19 08:51:25 51°15.78 2°53.857 6.4 268 9.4 101710 39
2009-11-19 08:51:30 51°15.793 2°53.846 5.8 282 9.4 101710 39
2009-11-19 08:51:34 51°15.804 2°53.837 5.9 266 9.4 101720 39
2009-11-19 08:51:40 51°15.82 2°53.824 6.3 279 9.4 101720 39
2009-11-19 08:51:45 51°15.834 2°53.813 7.4 263 9.4 101710 43
2009-11-19 08:51:50 51°15.847 2°53.802 5.9 284 9.4 101710 43
2009-11-19 08:51:54 51°15.858 2°53.793 6.3 264 9.4 101730 39
2009-11-19 08:52:00 51°15.874 2°53.78 6.9 285 9.4 101730 39
2009-11-19 08:52:05 51°15.887 2°53.77 5.6 263 9.4 101720 45
2009-11-19 08:52:10 51°15.901 2°53.759 7.4 284 9.4 101720 45
2009-11-19 08:52:14 51°15.912 2°53.75 8.3 269 9.4 101710 39
2009-11-19 08:52:20 51°15.928 2°53.738 7.7 280 9.4 101710 39
2009-11-19 08:52:25 51°15.942 2°53.727 7.5 265 9.4 101710 41
2009-11-19 08:52:30 51°15.955 2°53.717 8.2 81 9.4 101710 41
2009-11-19 08:52:35 51°15.969 2°53.706 5.2 262 9.4 101710 41
2009-11-19 08:52:40 51°15.983 2°53.696 4.6 279 9.4 101710 41
2009-11-19 08:52:45 51°15.997 2°53.685 7.8 260 9.4 101730 43
2009-11-19 08:52:50 51°16.01 2°53.674 7.4 280 9.4 101730 43
2009-11-19 08:52:55 51°16.023 2°53.663 5.6 267 9.4 101720 45
2009-11-19 08:53:00 51°16.036 2°53.652 5.7 281 9.4 101720 45
2009-11-19 08:53:05 51°16.05 2°53.642 5.2 265 9.4 101710 40
2009-11-19 08:53:10 51°16.063 2°53.631 4.8 284 9.4 101710 40
2009-11-19 08:53:15 51°16.077 2°53.62 6.1 270 9.4 101710 39
2009-11-19 08:53:20 51°16.09 2°53.61 4.9 279 9.4 101710 39
2009-11-19 08:53:25 51°16.103 2°53.598 7.6 257 9.4 101710 41
2009-11-19 08:53:30 51°16.116 2°53.588 5.6 284 9.4 101710 41
2009-11-19 08:53:35 51°16.129 2°53.577 6.9 264 9.5 101710 44
2009-11-19 08:53:40 51°16.142 2°53.566 4.9 279 9.5 101710 44
2009-11-19 08:53:45 51°16.155 2°53.555 5.5 264 9.5 101710 45
2009-11-19 08:53:50 51°16.169 2°53.545 5.4 285 9.5 101710 45
2009-11-19 08:53:55 51°16.182 2°53.535 4.8 264 9.5 101720 40
2009-11-19 08:54:00 51°16.195 2°53.524 4.5 280 9.5 101720 40
2009-11-19 08:54:05 51°16.208 2°53.513 5.8 270 9.5 101710 42
2009-11-19 08:54:10 51°16.221 2°53.503 5.5 285 9.5 101710 42
2009-11-19 08:54:15 51°16.234 2°53.492 4.9 266 9.5 101720 39
2009-11-19 08:54:20 51°16.248 2°53.482 6.9 285 9.5 101720 39
2009-11-19 08:54:25 51°16.261 2°53.471 5.6 264 9.5 101710 39
2009-11-19 08:54:30 51°16.274 2°53.459 5.5 285 9.5 101710 39
2009-11-19 08:54:35 51°16.287 2°53.448 7 262 9.5 101720 45
2009-11-19 08:54:40 51°16.3 2°53.436 6.4 279 9.5 101720 45
2009-11-19 08:54:45 51°16.314 2°53.426 5.8 262 9.5 101710 46
2009-11-19 08:54:50 51°16.326 2°53.414 5.4 279 9.5 101710 46
2009-11-19 08:54:55 51°16.339 2°53.402 5.1 266 9.5 101720 39
2009-11-19 08:55:00 51°16.352 2°53.391 6.2 284 9.5 101720 39
2009-11-19 08:55:05 51°16.364 2°53.379 7.2 258 9.6 101730 45
2009-11-19 08:55:10 51°16.377 2°53.367 8.5 280 9.6 101730 45
2009-11-19 08:55:15 51°16.389 2°53.355 5.6 265 9.5 101720 38
2009-11-19 08:55:20 51°16.403 2°53.343 5.9 280 9.5 101720 38
2009-11-19 08:55:25 51°16.415 2°53.331 4.5 263 9.5 101710 45
2009-11-19 08:55:30 51°16.428 2°53.319 7.6 283 9.5 101710 45
2009-11-19 08:55:35 51°16.442 2°53.307 7 263 9.6 101720 43
2009-11-19 08:55:40 51°16.454 2°53.295 5.2 281 9.6 101720 43
2009-11-19 08:55:45 51°16.467 2°53.284 9.5 259 9.5 101720 44
2009-11-19 08:55:50 51°16.48 2°53.272 5.2 286 9.5 101720 44
2009-11-19 08:55:55 51°16.493 2°53.26 5.7 265 9.6 101720 45
2009-11-19 08:56:00 51°16.506 2°53.248 7.2 279 9.6 101720 45
2009-11-19 08:56:05 51°16.519 2°53.237 5.3 264 9.6 101730 46
2009-11-19 08:56:10 51°16.532 2°53.225 5.3 279 9.6 101730 46
2009-11-19 08:56:15 51°16.545 2°53.213 5.2 265 9.6 101730 39
2009-11-19 08:56:20 51°16.559 2°53.202 6.8 285 9.6 101730 39
2009-11-19 08:56:25 51°16.572 2°53.19 6.3 265 9.6 101720 46
2009-11-19 08:56:30 51°16.585 2°53.179 6.4 285 9.6 101720 46
2009-11-19 08:56:35 51°16.598 2°53.168 7.2 261 9.6 101720 43
2009-11-19 08:56:40 51°16.611 2°53.156 8.1 285 9.6 101720 43
2009-11-19 08:56:45 51°16.625 2°53.145 8 261 9.6 101710 39
2009-11-19 08:56:50 51°16.638 2°53.134 5.8 284 9.6 101710 39
2009-11-19 08:56:55 51°16.651 2°53.123 6.1 263 9.6 101720 45
2009-11-19 08:57:00 51°16.664 2°53.111 4.8 279 9.6 101720 45
2009-11-19 08:57:05 51°16.677 2°53.1 5.1 264 9.6 101730 39
2009-11-19 08:57:10 51°16.69 2°53.088 5.1 284 9.6 101730 39
2009-11-19 08:57:15 51°16.703 2°53.076 7.4 260 9.6 101720 45
2009-11-19 08:57:20 51°16.715 2°53.064 4.9 284 9.6 101720 45
2009-11-19 08:57:25 51°16.728 2°53.052 9.4 258 9.6 101720 45
2009-11-19 08:57:30 51°16.74 2°53.04 7.5 284 9.6 101720 45
2009-11-19 08:57:35 51°16.753 2°53.029 6.9 262 9.6 101720 41
2009-11-19 08:57:40 51°16.765 2°53.017 5.2 284 9.6 101720 41
2009-11-19 08:57:45 51°16.778 2°53.005 5 264 9.6 101720 44
2009-11-19 08:57:50 51°16.79 2°52.993 7.2 283 9.6 101720 44
2009-11-19 08:57:55 51°16.803 2°52.981 5.5 262 9.6 101720 44
2009-11-19 08:58:00 51°16.816 2°52.969 6.9 284 9.6 101720 44
2009-11-19 08:58:05 51°16.827 2°52.956 5.4 263 9.6 101720 45
2009-11-19 08:58:10 51°16.839 2°52.945 8.6 283 9.6 101720 45
2009-11-19 08:58:15 51°16.852 2°52.932 7.5 259 9.6 101720 39
2009-11-19 08:58:20 51°16.863 2°52.921 7.8 285 9.6 101720 39
2009-11-19 08:58:25 51°16.875 2°52.908 7.9 262 9.6 101730 40
2009-11-19 08:58:30 51°16.887 2°52.897 8 282 9.6 101730 40
2009-11-19 08:58:35 51°16.899 2°52.885 6.9 264 9.7 101720 41
2009-11-19 08:58:40 51°16.911 2°52.873 6 280 9.7 101720 41
2009-11-19 08:58:45 51°16.924 2°52.862 5.4 267 9.7 101720 44
2009-11-19 08:58:50 51°16.936 2°52.85 5.5 280 9.7 101720 44
2009-11-19 08:58:55 51°16.947 2°52.838 8.3 261 9.6 101720 46
2009-11-19 08:59:00 51°16.959 2°52.826 8 282 9.6 101720 46
2009-11-19 08:59:05 51°16.972 2°52.814 8.2 259 9.6 101730 40
2009-11-19 08:59:10 51°16.984 2°52.801 7.1 285 9.6 101730 40
2009-11-19 08:59:15 51°16.997 2°52.789 7.8 261 9.7 101720 42
2009-11-19 08:59:20 51°17.009 2°52.777 8.5 282 9.7 101720 42
2009-11-19 08:59:25 51°17.021 2°52.765 6 258 9.7 101730 40
2009-11-19 08:59:30 51°17.033 2°52.753 7.8 286 9.7 101730 40
2009-11-19 08:59:35 51°17.045 2°52.74 6.7 264 9.7 101730 41
2009-11-19 08:59:40 51°17.057 2°52.728 5.6 278 9.7 101730 41
2009-11-19 08:59:45 51°17.069 2°52.715 7.1 262 9.7 101730 40
2009-11-19 08:59:50 51°17.08 2°52.703 9.4 279 9.7 101730 40
2009-11-19 08:59:55 51°17.091 2°52.69 10.2 259 9.7 101730 40
2009-11-19 09:00:00 51°17.104 2°52.678 9.5 282 9.7 101730 40
2009-11-19 09:00:05 51°17.116 2°52.665 5.7 261 9.7 101730 43
2009-11-19 09:00:10 51°17.129 2°52.654 6.6 281 9.7 101730 43
2009-11-19 09:00:15 51°17.141 2°52.641 5.6 261 9.7 101730 41
2009-11-19 09:00:20 51°17.153 2°52.63 9.4 284 9.7 101730 41
2009-11-19 09:00:25 51°17.165 2°52.617 6.6 264 9.7 101730 41
2009-11-19 09:00:30 51°17.177 2°52.605 5.8 285 9.7 101730 41
2009-11-19 09:00:34 51°17.187 2°52.595 9.6 261 9.7 101710 41
2009-11-19 09:00:40 51°17.201 2°52.581 6.5 278 9.7 101710 41
2009-11-19 09:00:45 51°17.214 2°52.569 6.1 265 9.7 101730 42
2009-11-19 09:00:50 51°17.226 2°52.558 7.8 284 9.7 101730 42
2009-11-19 09:00:55 51°17.238 2°52.546 8.4 261 9.6 101730 40
2009-11-19 09:01:00 51°17.25 2°52.534 8.8 285 9.6 101730 40
2009-11-19 09:01:05 51°17.262 2°52.522 8.5 262 9.6 101740 39
2009-11-19 09:01:10 51°17.274 2°52.51 7.5 278 9.6 101740 39
2009-11-19 09:01:15 51°17.286 2°52.498 9.8 261 9.7 101730 39
2009-11-19 09:01:20 51°17.297 2°52.485 9.9 284 9.7 101730 39
2009-11-19 09:01:25 51°17.309 2°52.473 6.1 261 9.6 101730 44
2009-11-19 09:01:30 51°17.32 2°52.46 6.1 281 9.6 101730 44
2009-11-19 09:01:35 51°17.332 2°52.449 6.2 263 9.7 101730 44
2009-11-19 09:01:40 51°17.345 2°52.436 6.1 279 9.7 101730 44
2009-11-19 09:01:45 51°17.357 2°52.424 6.8 262 9.7 101720 43
2009-11-19 09:01:50 51°17.369 2°52.412 9.4 286 9.7 101720 43
2009-11-19 09:01:55 51°17.381 2°52.4 9.3 259 9.7 101740 39
2009-11-19 09:02:00 51°17.393 2°52.387 10.6 280 9.7 101740 39
2009-11-19 09:02:05 51°17.404 2°52.375 9.2 262 9.7 101710 40
2009-11-19 09:02:10 51°17.416 2°52.363 11.9 281 9.7 101710 40
2009-11-19 09:02:15 51°17.428 2°52.352 8.7 261 9.7 101720 44
2009-11-19 09:02:20 51°17.44 2°52.339 6.5 284 9.7 101720 44
2009-11-19 09:02:25 51°17.452 2°52.327 7.3 263 9.7 101730 41
2009-11-19 09:02:30 51°17.464 2°52.315 6.5 285 9.7 101730 41
2009-11-19 09:02:35 51°17.476 2°52.303 6.2 261 9.7 101730 44
2009-11-19 09:02:40 51°17.488 2°52.29 8.2 283 9.7 101730 44
2009-11-19 09:02:45 51°17.499 2°52.278 5.5 264 9.7 101730 42
2009-11-19 09:02:50 51°17.511 2°52.266 9.2 283 9.7 101730 42
2009-11-19 09:02:55 51°17.523 2°52.254 9.4 260 9.7 101730 44
2009-11-19 09:03:00 51°17.535 2°52.242 10.2 278 9.7 101730 44
2009-11-19 09:03:05 51°17.548 2°52.23 13.1 256 9.7 101720 40
2009-11-19 09:03:10 51°17.56 2°52.218 7.2 280 9.7 101720 40
2009-11-19 09:03:15 51°17.572 2°52.206 10.8 260 9.7 101720 45
2009-11-19 09:03:20 51°17.584 2°52.193 10.5 277 9.7 101720 45
2009-11-19 09:03:25 51°17.596 2°52.18 9.6 262 9.7 101710 43
2009-11-19 09:03:30 51°17.607 2°52.167 8 279 9.7 101710 43
2009-11-19 09:03:35 51°17.619 2°52.155 10.1 259 9.7 101720 44
2009-11-19 09:03:40 51°17.63 2°52.143 8.4 278 9.7 101720 44
2009-11-19 09:03:45 51°17.642 2°52.13 9.3 261 9.7 101730 43
2009-11-19 09:03:50 51°17.654 2°52.118 9.3 282 9.7 101730 43
2009-11-19 09:03:54 51°17.664 2°52.108 8.6 262 9.7 101730 44
2009-11-19 09:04:00 51°17.678 2°52.093 10.9 285 9.7 101730 44
2009-11-19 09:04:05 51°17.691 2°52.081 9.4 256 9.7 101720 44
2009-11-19 09:04:10 51°17.703 2°52.069 8.6 284 9.7 101720 44
2009-11-19 09:04:14 51°17.713 2°52.059 7.5 261 9.7 101720 39
2009-11-19 09:04:20 51°17.728 2°52.044 5.8 279 9.7 101720 39
2009-11-19 09:04:25 51°17.74 2°52.032 9.2 261 9.7 101720 44
2009-11-19 09:04:30 51°17.752 2°52.02 7.5 283 9.7 101720 44
2009-11-19 09:04:34 51°17.761 2°52.01 6.9 262 9.7 101720 45
2009-11-19 09:04:40 51°17.775 2°51.995 7.5 284 9.7 101720 45
2009-11-19 09:04:45 51°17.787 2°51.982 11.6 257 9.7 101730 39
2009-11-19 09:04:50 51°17.799 2°51.97 7.3 286 9.7 101730 39
2009-11-19 09:04:54 51°17.808 2°51.96 6.8 262 9.7 101710 43
2009-11-19 09:05:00 51°17.822 2°51.946 5.9 285 9.7 101710 43
2009-11-19 09:05:05 51°17.834 2°51.934 10.1 260 9.7 101730 44
2009-11-19 09:05:10 51°17.846 2°51.923 6.9 280 9.7 101730 44
2009-11-19 09:05:14 51°17.856 2°51.913 6.3 261 9.8 101730 41
2009-11-19 09:05:20 51°17.87 2°51.899 7.2 284 9.8 101730 41
2009-11-19 09:05:25 51°17.882 2°51.888 6.9 262 9.8 101720 44
2009-11-19 09:05:30 51°17.893 2°51.875 5.7 281 9.8 101720 44
2009-11-19 09:05:34 51°17.902 2°51.865 5.7 263 9.7 101720 40
2009-11-19 09:05:40 51°17.916 2°51.85 8.2 283 9.7 101720 40
2009-11-19 09:05:45 51°17.928 2°51.838 7.2 262 9.7 101740 40
2009-11-19 09:05:50 51°17.94 2°51.825 10.3 281 9.7 101740 40
2009-11-19 09:05:55 51°17.952 2°51.814 9.9 259 9.7 101730 40
2009-11-19 09:06:00 51°17.964 2°51.802 9.8 280 9.7 101730 40
2009-11-19 09:06:05 51°17.976 2°51.79 11.2 260 9.7 101720 39
2009-11-19 09:06:10 51°17.988 2°51.778 10.2 280 9.7 101720 39
2009-11-19 09:06:15 51°17.999 2°51.765 9 265 9.8 101720 41
2009-11-19 09:06:20 51°18.011 2°51.753 9.1 282 9.8 101720 41
2009-11-19 09:06:25 51°18.023 2°51.74 6.6 263 9.7 101710 41
2009-11-19 09:06:30 51°18.035 2°51.728 7.4 283 9.7 101710 41
2009-11-19 09:06:35 51°18.047 2°51.715 9 262 9.8 101730 41
2009-11-19 09:06:40 51°18.059 2°51.702 8.9 287 9.8 101730 41
2009-11-19 09:06:45 51°18.07 2°51.689 6.8 259 9.7 101730 39
2009-11-19 09:06:50 51°18.083 2°51.677 7.3 279 9.7 101730 39
2009-11-19 09:06:55 51°18.095 2°51.664 7.6 260 9.7 101720 45
2009-11-19 09:07:00 51°18.107 2°51.652 7.8 280 9.7 101720 45
2009-11-19 09:07:05 51°18.119 2°51.639 7.3 255 9.8 101720 44
2009-11-19 09:07:10 51°18.131 2°51.627 11.8 281 9.8 101720 44
2009-11-19 09:07:15 51°18.143 2°51.614 11.4 257 9.8 101730 46
2009-11-19 09:07:20 51°18.156 2°51.602 7.7 284 9.8 101730 46
2009-11-19 09:07:25 51°18.168 2°51.59 7.1 263 9.8 101720 41
2009-11-19 09:07:30 51°18.18 2°51.577 8.3 280 9.8 101720 41
2009-11-19 09:07:35 51°18.192 2°51.565 10.3 261 9.8 101710 45
2009-11-19 09:07:40 51°18.205 2°51.552 10.1 282 9.8 101710 45
2009-11-19 09:07:45 51°18.217 2°51.541 8.6 263 9.9 101720 42
2009-11-19 09:07:50 51°18.229 2°51.528 9.6 279 9.9 101720 42
2009-11-19 09:07:55 51°18.241 2°51.516 9 262 9.9 101720 44
2009-11-19 09:08:00 51°18.254 2°51.504 6.8 284 9.9 101720 44
2009-11-19 09:08:05 51°18.266 2°51.492 9.3 261 9.9 101720 44
2009-11-19 09:08:10 51°18.278 2°51.48 10.7 282 9.9 101720 44
2009-11-19 09:08:15 51°18.29 2°51.468 8.3 263 9.9 101730 39
2009-11-19 09:08:20 51°18.303 2°51.457 7.9 280 9.9 101730 39
2009-11-19 09:08:25 51°18.315 2°51.444 7.7 261 9.9 101710 44
2009-11-19 09:08:30 51°18.327 2°51.432 8.4 280 9.9 101710 44
2009-11-19 09:08:35 51°18.339 2°51.419 7.9 263 9.9 101730 42
2009-11-19 09:08:40 51°18.351 2°51.407 7.7 277 9.9 101730 42
2009-11-19 09:08:45 51°18.363 2°51.395 7.7 261 9.9 101720 43
2009-11-19 09:08:50 51°18.375 2°51.383 10.2 287 9.9 101720 43
2009-11-19 09:08:55 51°18.386 2°51.37 6.9 263 9.9 101730 41
2009-11-19 09:09:00 51°18.398 2°51.357 10.6 283 9.9 101730 41
2009-11-19 09:09:05 51°18.41 2°51.345 9.6 258 9.9 101740 42
2009-11-19 09:09:10 51°18.422 2°51.331 9.5 279 9.9 101740 42
2009-11-19 09:09:15 51°18.434 2°51.319 8 266 9.9 101730 40
2009-11-19 09:09:20 51°18.446 2°51.306 7.5 284 9.9 101730 40
2009-11-19 09:09:25 51°18.457 2°51.293 8.4 260 9.9 101710 44
2009-11-19 09:09:30 51°18.469 2°51.281 10.6 280 9.9 101710 44
2009-11-19 09:09:34 51°18.48 2°51.27 11.7 258 9.9 101710 42
2009-11-19 09:09:40 51°18.494 2°51.255 11.9 285 9.9 101710 42
2009-11-19 09:09:45 51°18.506 2°51.243 8.7 261 9.9 101730 45
2009-11-19 09:09:50 51°18.518 2°51.23 11.3 280 9.9 101730 45
2009-11-19 09:09:55 51°18.529 2°51.217 6.2 264 9.9 101720 43
2009-11-19 09:10:00 51°18.542 2°51.205 6.9 279 9.9 101720 43
2009-11-19 09:10:05 51°18.554 2°51.192 9.5 262 9.9 101720 41
2009-11-19 09:10:10 51°18.566 2°51.18 11.9 281 9.9 101720 41
2009-11-19 09:10:15 51°18.577 2°51.168 13.7 257 9.9 101720 40
2009-11-19 09:10:20 51°18.59 2°51.155 11.9 278 9.9 101720 40
2009-11-19 09:10:25 51°18.602 2°51.143 11 260 9.9 101730 41
2009-11-19 09:10:30 51°18.613 2°51.13 8.5 285 9.9 101730 41
2009-11-19 09:10:35 51°18.625 2°51.117 8.4 261 9.9 101730 41
2009-11-19 09:10:40 51°18.637 2°51.104 10.9 283 9.9 101730 41
2009-11-19 09:10:45 51°18.65 2°51.091 10.5 260 9.9 101720 43
2009-11-19 09:10:50 51°18.662 2°51.078 10.5 280 9.9 101720 43
2009-11-19 09:10:55 51°18.674 2°51.065 11 260 9.9 101720 44
2009-11-19 09:11:00 51°18.687 2°51.052 11.2 281 9.9 101720 44
2009-11-19 09:11:05 51°18.7 2°51.04 7 264 9.9 101700 40
2009-11-19 09:11:10 51°18.712 2°51.027 8.8 279 9.9 101700 40
2009-11-19 09:11:15 51°18.724 2°51.014 6.4 264 9.9 101720 39
2009-11-19 09:11:20 51°18.737 2°51.002 11.2 285 9.9 101720 39
2009-11-19 09:11:25 51°18.749 2°50.988 7.6 261 9.8 101710 42
2009-11-19 09:11:30 51°18.762 2°50.976 7.7 281 9.8 101710 42
2009-11-19 09:11:35 51°18.774 2°50.964 8.9 260 9.9 101720 43
2009-11-19 09:11:40 51°18.786 2°50.95 7 281 9.9 101720 43
2009-11-19 09:11:45 51°18.798 2°50.938 6.9 262 9.9 101700 40
2009-11-19 09:11:50 51°18.81 2°50.925 6.1 284 9.9 101700 40
2009-11-19 09:11:54 51°18.82 2°50.916 8.5 258 9.9 101710 40
2009-11-19 09:12:00 51°18.834 2°50.9 8.9 283 9.9 101710 40
2009-11-19 09:12:05 51°18.847 2°50.889 11.4 259 9.9 101730 42
2009-11-19 09:12:10 51°18.858 2°50.876 6.9 283 9.9 101730 42
2009-11-19 09:12:15 51°18.87 2°50.863 8.1 260 9.9 101710 42
2009-11-19 09:12:20 51°18.882 2°50.851 14.2 286 9.9 101710 42
2009-11-19 09:12:25 51°18.894 2°50.838 11.4 261 9.9 101720 45
2009-11-19 09:12:30 51°18.906 2°50.826 8.3 285 9.9 101720 45
2009-11-19 09:12:35 51°18.918 2°50.813 7 264 9.9 101740 44
2009-11-19 09:12:40 51°18.93 2°50.801 10.2 280 9.9 101740 44
2009-11-19 09:12:45 51°18.942 2°50.787 7 262 9.9 101710 44
2009-11-19 09:12:50 51°18.954 2°50.774 11.2 279 9.9 101710 44
2009-11-19 09:12:55 51°18.966 2°50.761 6.2 262 9.9 101700 40
2009-11-19 09:13:00 51°18.978 2°50.748 6.6 285 9.9 101700 40
2009-11-19 09:13:05 51°18.99 2°50.736 7.8 264 9.9 101730 41
2009-11-19 09:13:10 51°19.001 2°50.722 5.6 284 9.9 101730 41
2009-11-19 09:13:14 51°19.011 2°50.712 9.3 262 9.9 101720 41
2009-11-19 09:13:20 51°19.025 2°50.698 11.6 280 9.9 101720 41
2009-11-19 09:13:25 51°19.037 2°50.685 6.5 263 9.9 101730 41
2009-11-19 09:13:30 51°19.048 2°50.673 7 283 9.9 101730 41
2009-11-19 09:13:34 51°19.058 2°50.664 9.2 261 9.9 101720 44
2009-11-19 09:13:40 51°19.072 2°50.649 10.1 287 9.9 101720 44
2009-11-19 09:13:45 51°19.083 2°50.636 8.8 260 9.9 101720 42
2009-11-19 09:13:50 51°19.095 2°50.624 8.8 281 9.9 101720 42
2009-11-19 09:13:55 51°19.107 2°50.611 10 259 9.9 101720 41
2009-11-19 09:14:00 51°19.119 2°50.599 8.5 280 9.9 101720 41
2009-11-19 09:14:05 51°19.131 2°50.586 8.7 259 9.9 101700 40
2009-11-19 09:14:10 51°19.143 2°50.573 9.9 280 9.9 101700 40
2009-11-19 09:14:15 51°19.155 2°50.562 10.9 260 10 101710 44
2009-11-19 09:14:20 51°19.167 2°50.549 10.6 279 10 101710 44
2009-11-19 09:14:25 51°19.179 2°50.537 7 264 10 101710 42
2009-11-19 09:14:30 51°19.192 2°50.525 6.3 285 10 101710 42
2009-11-19 09:14:35 51°19.204 2°50.513 7.4 262 10 101720 42
2009-11-19 09:14:40 51°19.216 2°50.5 7.4 281 10 101720 42
2009-11-19 09:14:45 51°19.228 2°50.488 7 264 10 101730 44
2009-11-19 09:14:50 51°19.24 2°50.475 9.6 285 10 101730 44
2009-11-19 09:14:55 51°19.252 2°50.463 9.9 261 10 101700 40
2009-11-19 09:15:00 51°19.265 2°50.451 7.4 282 10 101700 40
2009-11-19 09:15:05 51°19.277 2°50.44 6 263 10 101720 45
2009-11-19 09:15:10 51°19.289 2°50.427 9.5 286 10 101720 45
2009-11-19 09:15:14 51°19.299 2°50.418 8.5 259 10 101710 40
2009-11-19 09:15:20 51°19.313 2°50.402 7.9 283 10 101710 40
2009-11-19 09:15:25 51°19.325 2°50.391 7.8 262 10 101710 40
2009-11-19 09:15:30 51°19.338 2°50.378 8.4 281 10 101710 40
2009-11-19 09:15:34 51°19.347 2°50.368 10.5 262 10 101710 41
2009-11-19 09:15:40 51°19.362 2°50.352 6.6 281 10 101710 41
2009-11-19 09:15:45 51°19.374 2°50.34 10.1 258 10 101710 41
2009-11-19 09:15:50 51°19.386 2°50.327 9.4 283 10 101710 41
2009-11-19 09:15:55 51°19.399 2°50.314 10.9 260 10 101720 44
2009-11-19 09:16:00 51°19.411 2°50.301 10.1 284 10 101720 44
2009-11-19 09:16:05 51°19.424 2°50.289 5.5 263 10 101710 46
2009-11-19 09:16:10 51°19.436 2°50.276 7.1 280 10 101710 46
2009-11-19 09:16:15 51°19.449 2°50.264 7.2 264 10 101710 45
2009-11-19 09:16:20 51°19.461 2°50.251 9.7 280 10 101710 45
2009-11-19 09:16:25 51°19.474 2°50.239 12.3 260 10 101700 39
2009-11-19 09:16:30 51°19.486 2°50.226 10.6 283 10 101700 39
2009-11-19 09:16:35 51°19.499 2°50.214 7.4 263 10 101710 40
2009-11-19 09:16:40 51°19.511 2°50.202 7.5 287 10 101710 40
2009-11-19 09:16:45 51°19.524 2°50.19 10.5 260 10 101710 45
2009-11-19 09:16:50 51°19.537 2°50.178 13.8 286 10 101710 45
2009-11-19 09:16:55 51°19.55 2°50.165 8.5 263 10 101710 43
2009-11-19 09:17:00 51°19.562 2°50.153 8.7 283 10 101710 43
2009-11-19 09:17:05 51°19.574 2°50.141 11.7 262 10 101720 43
2009-11-19 09:17:10 51°19.586 2°50.128 9.5 285 10 101720 43
2009-11-19 09:17:15 51°19.598 2°50.115 8.7 263 9.9 101720 44
2009-11-19 09:17:20 51°19.611 2°50.103 7.5 278 9.9 101720 44
2009-11-19 09:17:25 51°19.623 2°50.09 9 261 9.9 101720 40
2009-11-19 09:17:30 51°19.635 2°50.077 8 286 9.9 101720 40
2009-11-19 09:17:35 51°19.648 2°50.064 8.1 258 9.9 101700 45
2009-11-19 09:17:40 51°19.66 2°50.051 9.3 280 9.9 101700 45
2009-11-19 09:17:45 51°19.673 2°50.038 9.1 260 9.9 101700 40
2009-11-19 09:17:50 51°19.685 2°50.026 9.6 278 9.9 101700 40
2009-11-19 09:17:55 51°19.698 2°50.015 12 255 9.9 101710 44
2009-11-19 09:18:00 51°19.711 2°50.002 11.6 279 9.9 101710 44
2009-11-19 09:18:05 51°19.723 2°49.99 7.5 261 9.9 101690 46
2009-11-19 09:18:10 51°19.735 2°49.978 8.4 280 9.9 101690 46
2009-11-19 09:18:15 51°19.747 2°49.966 8.8 260 10 101730 45
2009-11-19 09:18:20 51°19.759 2°49.954 8.5 284 10 101730 45
2009-11-19 09:18:25 51°19.771 2°49.941 8.2 252 10 101710 44
2009-11-19 09:18:30 51°19.783 2°49.929 10.4 279 10 101710 44
2009-11-19 09:18:35 51°19.796 2°49.916 9.8 259 10 101710 42
2009-11-19 09:18:40 51°19.808 2°49.904 10.8 283 10 101710 42
2009-11-19 09:18:45 51°19.821 2°49.891 7.6 262 10 101710 45
2009-11-19 09:18:50 51°19.833 2°49.878 9.4 281 10 101710 45
2009-11-19 09:18:55 51°19.845 2°49.866 11.2 257 10 101700 45
2009-11-19 09:19:00 51°19.857 2°49.853 11 283 10 101700 45
2009-11-19 09:19:05 51°19.87 2°49.84 10.7 256 10 101710 42
2009-11-19 09:19:10 51°19.882 2°49.828 11.4 282 10 101710 42
2009-11-19 09:19:15 51°19.894 2°49.814 11.6 258 10 101710 44
2009-11-19 09:19:20 51°19.906 2°49.801 10.3 281 10 101710 44
2009-11-19 09:19:25 51°19.919 2°49.789 9.8 257 10 101700 43
2009-11-19 09:19:30 51°19.931 2°49.776 9.4 280 10 101700 43
2009-11-19 09:19:35 51°19.943 2°49.764 9.1 261 10 101720 43
2009-11-19 09:19:40 51°19.955 2°49.752 10.6 282 10 101720 43
2009-11-19 09:19:45 51°19.967 2°49.739 11.5 257 10 101720 40
2009-11-19 09:19:50 51°19.98 2°49.727 12 280 10 101720 40
2009-11-19 09:19:54 51°19.989 2°49.717 12.3 260 10 101700 44
2009-11-19 09:20:00 51°20.004 2°49.703 13.9 279 10 101700 44
2009-11-19 09:20:05 51°20.016 2°49.69 8.3 260 10.1 101700 42
2009-11-19 09:20:10 51°20.028 2°49.677 13 280 10.1 101700 42
2009-11-19 09:20:15 51°20.041 2°49.665 12.4 260 10.1 101700 41
2009-11-19 09:20:20 51°20.053 2°49.652 12.1 282 10.1 101700 41
2009-11-19 09:20:25 51°20.065 2°49.64 10.8 261 10.1 101700 45
2009-11-19 09:20:30 51°20.077 2°49.627 7.8 279 10.1 101700 45
2009-11-19 09:20:35 51°20.09 2°49.614 11.3 259 10.1 101710 41
2009-11-19 09:20:40 51°20.102 2°49.601 10.1 278 10.1 101710 41
2009-11-19 09:20:45 51°20.115 2°49.589 13.1 256 10.1 101710 40
2009-11-19 09:20:50 51°20.127 2°49.575 12.4 283 10.1 101710 40
2009-11-19 09:20:55 51°20.139 2°49.563 14.6 256 10 101710 44
2009-11-19 09:21:00 51°20.152 2°49.549 15.4 278 10 101710 44
2009-11-19 09:21:05 51°20.164 2°49.536 12.2 261 10 101700 43
2009-11-19 09:21:10 51°20.176 2°49.523 13.3 284 10 101700 43
2009-11-19 09:21:15 51°20.188 2°49.51 13.4 260 10 101700 42
2009-11-19 09:21:20 51°20.201 2°49.497 12 282 10 101700 42
2009-11-19 09:21:25 51°20.213 2°49.484 12.5 261 10 101700 41
2009-11-19 09:21:30 51°20.225 2°49.47 8.4 278 10 101700 41
2009-11-19 09:21:35 51°20.237 2°49.458 8 262 10 101710 43
2009-11-19 09:21:40 51°20.248 2°49.444 8.2 281 10 101710 43
2009-11-19 09:21:45 51°20.26 2°49.431 11 262 10 101690 42
2009-11-19 09:21:50 51°20.273 2°49.418 9.5 281 10 101690 42
2009-11-19 09:21:55 51°20.285 2°49.405 7.9 263 10 101710 39
2009-11-19 09:22:00 51°20.296 2°49.391 9.1 280 10 101710 39
2009-11-19 09:22:05 51°20.309 2°49.379 5.9 263 10 101710 42
2009-11-19 09:22:10 51°20.321 2°49.365 6.9 280 10 101710 42
2009-11-19 09:22:15 51°20.332 2°49.352 10.3 258 10 101710 45
2009-11-19 09:22:20 51°20.344 2°49.341 12.6 278 10 101710 45
2009-11-19 09:22:25 51°20.356 2°49.326 9.6 259 10 101710 44
2009-11-19 09:22:30 51°20.368 2°49.315 9.4 281 10 101710 44
2009-11-19 09:22:35 51°20.38 2°49.303 9.2 262 10 101730 43
2009-11-19 09:22:40 51°20.391 2°49.288 6.6 284 10 101730 43
2009-11-19 09:22:45 51°20.404 2°49.278 12.3 258 10 101690 41
2009-11-19 09:22:50 51°20.416 2°49.264 6.7 284 10 101690 41
2009-11-19 09:22:55 51°20.429 2°49.252 10 261 10.1 101710 42
2009-11-19 09:23:00 51°20.441 2°49.24 6.8 284 10.1 101710 42
2009-11-19 09:23:05 51°20.454 2°49.228 8.3 263 10.1 101710 45
2009-11-19 09:23:10 51°20.466 2°49.215 9 285 10.1 101710 45
2009-11-19 09:23:14 51°20.476 2°49.205 11.7 262 10.1 101700 41
2009-11-19 09:23:20 51°20.49 2°49.19 8.6 280 10.1 101700 41
2009-11-19 09:23:25 51°20.503 2°49.177 11.8 261 10.1 101710 45
2009-11-19 09:23:30 51°20.516 2°49.166 13.6 280 10.1 101710 45
2009-11-19 09:23:35 51°20.528 2°49.152 11.7 259 10.1 101710 44
2009-11-19 09:23:40 51°20.541 2°49.141 13 283 10.1 101710 44
2009-11-19 09:23:45 51°20.553 2°49.127 9.6 262 10.1 101700 44
2009-11-19 09:23:50 51°20.566 2°49.115 7.9 285 10.1 101700 44
2009-11-19 09:23:55 51°20.578 2°49.102 10.2 261 10.1 101700 42
2009-11-19 09:24:00 51°20.591 2°49.09 8.2 281 10.1 101700 42
2009-11-19 09:24:05 51°20.604 2°49.077 8.9 267 10.1 101690 44
2009-11-19 09:24:10 51°20.616 2°49.065 7.7 284 10.1 101690 44
2009-11-19 09:24:14 51°20.626 2°49.055 7 265 10.1 101690 42
2009-11-19 09:24:20 51°20.641 2°49.041 7.4 284 10.1 101690 42
2009-11-19 09:24:25 51°20.654 2°49.032 6.1 265 10.1 101710 45
2009-11-19 09:24:30 51°20.667 2°49.02 5.9 284 10.1 101710 45
2009-11-19 09:24:35 51°20.68 2°49.011 7.9 266 10 101690 38
2009-11-19 09:24:40 51°20.693 2°49.001 7.3 284 10 101690 38
2009-11-19 09:24:45 51°20.707 2°48.993 6.6 263 10.1 101710 40
2009-11-19 09:24:50 51°20.72 2°48.984 7.9 282 10.1 101710 40
2009-11-19 09:24:55 51°20.733 2°48.975 5.9 262 10.1 101710 40
2009-11-19 09:25:00 51°20.747 2°48.967 7.2 282 10.1 101710 40
2009-11-19 09:25:05 51°20.76 2°48.959 7 261 10.1 101690 46
2009-11-19 09:25:10 51°20.773 2°48.951 5.6 284 10.1 101690 46
2009-11-19 09:25:15 51°20.787 2°48.944 10.3 268 10.1 101700 46
2009-11-19 09:25:20 51°20.801 2°48.936 6.2 279 10.1 101700 46
2009-11-19 09:25:25 51°20.815 2°48.928 6.8 266 10.1 101710 39
2009-11-19 09:25:30 51°20.828 2°48.92 8.5 281 10.1 101710 39
2009-11-19 09:25:35 51°20.842 2°48.914 10.2 268 10.1 101720 44
2009-11-19 09:25:40 51°20.856 2°48.906 10 285 10.1 101720 44
2009-11-19 09:25:45 51°20.87 2°48.9 10.3 270 10.1 101710 40
2009-11-19 09:25:50 51°20.883 2°48.893 10 283 10.1 101710 40
2009-11-19 09:25:55 51°20.897 2°48.885 10.1 268 10.1 101730 44
2009-11-19 09:26:00 51°20.911 2°48.877 9.1 84 10.1 101730 44
2009-11-19 09:26:05 51°20.925 2°48.871 8.3 270 10 101720 40
2009-11-19 09:26:10 51°20.939 2°48.862 7.1 280 10 101720 40
2009-11-19 09:26:15 51°20.952 2°48.856 6.5 264 10 101710 44
2009-11-19 09:26:20 51°20.966 2°48.847 6.7 279 10 101710 44
2009-11-19 09:26:25 51°20.98 2°48.84 7.8 268 10 101720 43
2009-11-19 09:26:30 51°20.994 2°48.832 8.5 79 10 101720 43
2009-11-19 09:26:35 51°21.007 2°48.826 7.2 269 10 101710 44
2009-11-19 09:26:40 51°21.021 2°48.818 6.1 281 10 101710 44
2009-11-19 09:26:45 51°21.035 2°48.811 5.7 267 10 101700 45
2009-11-19 09:26:50 51°21.048 2°48.803 6.2 281 10 101700 45
2009-11-19 09:26:55 51°21.062 2°48.798 7.9 269 10.1 101700 42
2009-11-19 09:27:00 51°21.075 2°48.79 8.5 284 10.1 101700 42
2009-11-19 09:27:05 51°21.089 2°48.783 6.4 269 10.1 101710 41
2009-11-19 09:27:10 51°21.102 2°48.776 5.1 280 10.1 101710 41
2009-11-19 09:27:15 51°21.116 2°48.768 6.1 262 10.1 101710 43
2009-11-19 09:27:20 51°21.129 2°48.759 6.5 283 10.1 101710 43
2009-11-19 09:27:25 51°21.143 2°48.753 6.4 270 10.2 101700 39
2009-11-19 09:27:30 51°21.156 2°48.746 7.3 286 10.2 101700 39
2009-11-19 09:27:35 51°21.169 2°48.737 5.4 268 10.2 101700 41
2009-11-19 09:27:40 51°21.183 2°48.732 6.8 280 10.2 101700 41
2009-11-19 09:27:45 51°21.196 2°48.722 9.2 324 10.2 101690 42
2009-11-19 09:27:50 51°21.21 2°48.716 6 280 10.2 101690 42
2009-11-19 09:27:54 51°21.221 2°48.71 5.7 263 10.2 101690 46
2009-11-19 09:28:00 51°21.237 2°48.701 8.3 284 10.2 101690 46
2009-11-19 09:28:05 51°21.251 2°48.693 5.7 261 10.2 101700 40
2009-11-19 09:28:10 51°21.265 2°48.686 6.4 285 10.2 101700 40
2009-11-19 09:28:15 51°21.278 2°48.677 8.4 269 10.2 101700 45
2009-11-19 09:28:20 51°21.293 2°48.671 8.9 288 10.2 101700 45
2009-11-19 09:28:25 51°21.307 2°48.663 9 270 10.2 101700 44
2009-11-19 09:28:30 51°21.32 2°48.655 9.9 279 10.2 101700 44
2009-11-19 09:28:35 51°21.334 2°48.649 8.9 269 10.2 101690 40
2009-11-19 09:28:40 51°21.348 2°48.64 5.6 283 10.2 101690 40
2009-11-19 09:28:45 51°21.362 2°48.634 7.2 269 10.2 101710 42
2009-11-19 09:28:50 51°21.376 2°48.625 6.2 280 10.2 101710 42
2009-11-19 09:28:54 51°21.388 2°48.621 7.7 264 10.1 101700 44
2009-11-19 09:29:00 51°21.404 2°48.61 6 280 10.1 101700 44
2009-11-19 09:29:05 51°21.419 2°48.604 8.2 264 10.1 101710 39
2009-11-19 09:29:10 51°21.433 2°48.596 10.2 285 10.1 101710 39
2009-11-19 09:29:15 51°21.447 2°48.59 6.3 267 10.1 101700 45
2009-11-19 09:29:20 51°21.461 2°48.581 6.1 278 10.1 101700 45
2009-11-19 09:29:25 51°21.475 2°48.574 8.1 31 10.2 101700 45
2009-11-19 09:29:30 51°21.489 2°48.566 6 289 10.2 101700 45
2009-11-19 09:29:35 51°21.503 2°48.559 5.9 265 10.2 101690 44
2009-11-19 09:29:40 51°21.517 2°48.551 7.1 281 10.2 101690 44
2009-11-19 09:29:45 51°21.531 2°48.543 6.6 270 10.2 101710 40
2009-11-19 09:29:50 51°21.545 2°48.536 7 280 10.2 101710 40
2009-11-19 09:29:55 51°21.559 2°48.528 8 264 10.2 101700 43
2009-11-19 09:30:00 51°21.573 2°48.522 8.2 285 10.2 101700 43
2009-11-19 09:30:05 51°21.587 2°48.513 8.1 269 10.2 101700 45
2009-11-19 09:30:10 51°21.602 2°48.507 8.9 284 10.2 101700 45
2009-11-19 09:30:15 51°21.615 2°48.499 9.5 23 10.2 101700 39
2009-11-19 09:30:20 51°21.629 2°48.494 9.1 278 10.2 101700 39
2009-11-19 09:30:25 51°21.643 2°48.484 8.9 28 10.2 101700 42
2009-11-19 09:30:30 51°21.657 2°48.478 8.7 77 10.2 101700 42
2009-11-19 09:30:35 51°21.671 2°48.47 5.9 262 10.2 101700 46
2009-11-19 09:30:40 51°21.685 2°48.464 7.4 283 10.2 101700 46
2009-11-19 09:30:45 51°21.699 2°48.455 6.4 268 10.2 101690 43
2009-11-19 09:30:50 51°21.713 2°48.448 4.9 285 10.2 101690 43
2009-11-19 09:30:55 51°21.727 2°48.441 8.8 267 10.2 101700 39
2009-11-19 09:31:00 51°21.74 2°48.434 8.1 281 10.2 101700 39
2009-11-19 09:31:05 51°21.755 2°48.427 8.2 266 10.2 101690 46
2009-11-19 09:31:10 51°21.768 2°48.418 6.9 278 10.2 101690 46
2009-11-19 09:31:15 51°21.782 2°48.411 8.3 263 10.3 101700 40
2009-11-19 09:31:20 51°21.795 2°48.402 6.9 282 10.3 101700 40
2009-11-19 09:31:25 51°21.809 2°48.393 11.5 260 10.3 101710 40
2009-11-19 09:31:30 51°21.823 2°48.385 9.5 285 10.3 101710 40
2009-11-19 09:31:35 51°21.836 2°48.374 7.9 259 10.2 101710 40
2009-11-19 09:31:40 51°21.85 2°48.365 7.5 284 10.2 101710 40
2009-11-19 09:31:45 51°21.863 2°48.354 9.3 263 10.2 101700 40
2009-11-19 09:31:50 51°21.876 2°48.343 8.3 283 10.2 101700 40
2009-11-19 09:31:55 51°21.89 2°48.332 7.4 263 10.2 101690 40
2009-11-19 09:32:00 51°21.902 2°48.32 10.6 278 10.2 101690 40
2009-11-19 09:32:05 51°21.915 2°48.308 7.5 263 10.2 101710 45
2009-11-19 09:32:10 51°21.929 2°48.297 9.7 281 10.2 101710 45
2009-11-19 09:32:15 51°21.941 2°48.284 7.5 262 10.2 101710 40
2009-11-19 09:32:20 51°21.954 2°48.273 7.7 284 10.2 101710 40
2009-11-19 09:32:25 51°21.967 2°48.261 7.8 263 10.2 101710 44
2009-11-19 09:32:30 51°21.98 2°48.249 7.5 280 10.2 101710 44
2009-11-19 09:32:35 51°21.993 2°48.237 8.3 264 10.2 101700 40
2009-11-19 09:32:40 51°22.006 2°48.225 10.5 284 10.2 101700 40
2009-11-19 09:32:45 51°22.019 2°48.213 8.1 263 10.2 101700 40
2009-11-19 09:32:50 51°22.032 2°48.202 7.5 282 10.2 101700 40
2009-11-19 09:32:55 51°22.045 2°48.189 7.1 261 10.2 101690 45
2009-11-19 09:33:00 51°22.058 2°48.177 6.7 283 10.2 101690 45
2009-11-19 09:33:05 51°22.071 2°48.165 12.8 257 10.2 101670 45
2009-11-19 09:33:10 51°22.084 2°48.154 13 283 10.2 101670 45
2009-11-19 09:33:15 51°22.097 2°48.142 13.2 263 10.2 101670 45
2009-11-19 09:33:20 51°22.11 2°48.13 9.7 283 10.2 101670 45
2009-11-19 09:33:25 51°22.123 2°48.118 11.3 260 10.3 101670 45
2009-11-19 09:33:30 51°22.136 2°48.106 7.5 280 10.3 101670 45
2009-11-19 09:33:35 51°22.149 2°48.095 12.6 260 10.3 101670 42
2009-11-19 09:33:40 51°22.162 2°48.083 11.1 280 10.3 101670 42
2009-11-19 09:33:45 51°22.175 2°48.071 8.5 264 10.3 101660 44
2009-11-19 09:33:50 51°22.188 2°48.059 8.7 280 10.3 101660 44
2009-11-19 09:33:55 51°22.201 2°48.047 8.5 264 10.3 101670 40
2009-11-19 09:34:00 51°22.214 2°48.036 7.4 280 10.3 101670 40
2009-11-19 09:34:05 51°22.226 2°48.024 9.7 260 10.3 101700 42
2009-11-19 09:34:10 51°22.239 2°48.012 11.8 281 10.3 101700 42
2009-11-19 09:34:15 51°22.251 2°48 12.8 260 10.3 101680 45
2009-11-19 09:34:20 51°22.263 2°47.988 7.5 280 10.3 101680 45
2009-11-19 09:34:25 51°22.275 2°47.975 10 262 10.3 101710 42
2009-11-19 09:34:30 51°22.287 2°47.962 10.8 280 10.3 101710 42
2009-11-19 09:34:35 51°22.299 2°47.949 11 257 10.3 101690 42
2009-11-19 09:34:40 51°22.312 2°47.937 8.1 284 10.3 101690 42
2009-11-19 09:34:45 51°22.324 2°47.924 10.9 261 10.2 101700 41
2009-11-19 09:34:50 51°22.336 2°47.91 9.7 283 10.2 101700 41
2009-11-19 09:34:54 51°22.346 2°47.899 9.6 260 10.2 101680 42
2009-11-19 09:35:00 51°22.361 2°47.885 10 282 10.2 101680 42
2009-11-19 09:35:05 51°22.373 2°47.871 7.6 264 10.3 101670 43
2009-11-19 09:35:10 51°22.386 2°47.86 8.4 283 10.3 101670 43
2009-11-19 09:35:15 51°22.398 2°47.846 7.4 265 10.3 101690 42
2009-11-19 09:35:20 51°22.41 2°47.833 7.5 282 10.3 101690 42
2009-11-19 09:35:25 51°22.422 2°47.819 6.3 260 10.3 101680 40
2009-11-19 09:35:30 51°22.435 2°47.807 14.2 278 10.3 101680 40
2009-11-19 09:35:35 51°22.447 2°47.794 4.4 264 10.3 101690 41
2009-11-19 09:35:40 51°22.459 2°47.781 8.4 281 10.3 101690 41
2009-11-19 09:35:45 51°22.471 2°47.768 10.5 258 10.3 101700 40
2009-11-19 09:35:50 51°22.484 2°47.756 9.7 282 10.3 101700 40
2009-11-19 09:35:54 51°22.493 2°47.746 9.7 262 10.3 101670 39
2009-11-19 09:36:00 51°22.508 2°47.73 7.2 281 10.3 101670 39
2009-11-19 09:36:05 51°22.52 2°47.718 11.7 258 10.3 101690 40
2009-11-19 09:36:10 51°22.532 2°47.705 10.7 283 10.3 101690 40
2009-11-19 09:36:15 51°22.545 2°47.693 10.1 262 10.3 101670 43
2009-11-19 09:36:20 51°22.557 2°47.68 10 281 10.3 101670 43
2009-11-19 09:36:25 51°22.569 2°47.667 9 259 10.4 101690 41
2009-11-19 09:36:30 51°22.581 2°47.654 9.4 282 10.4 101690 41
2009-11-19 09:36:35 51°22.593 2°47.641 11.2 256 10.4 101680 40
2009-11-19 09:36:40 51°22.605 2°47.628 10.9 281 10.4 101680 40
2009-11-19 09:36:45 51°22.617 2°47.615 11.8 261 10.4 101690 45
2009-11-19 09:36:50 51°22.629 2°47.602 7.4 281 10.4 101690 45
2009-11-19 09:36:54 51°22.639 2°47.592 8.2 261 10.4 101680 43
2009-11-19 09:37:00 51°22.653 2°47.576 7.4 280 10.4 101680 43
2009-11-19 09:37:05 51°22.665 2°47.564 8.1 264 10.4 101670 44
2009-11-19 09:37:10 51°22.677 2°47.551 8.9 280 10.4 101670 44
2009-11-19 09:37:15 51°22.689 2°47.537 13.4 260 10.4 101690 42
2009-11-19 09:37:20 51°22.701 2°47.524 12.1 285 10.4 101690 42
2009-11-19 09:37:25 51°22.713 2°47.511 11.2 261 10.4 101680 42
2009-11-19 09:37:30 51°22.725 2°47.498 11.7 282 10.4 101680 42
2009-11-19 09:37:35 51°22.737 2°47.484 9.2 262 10.3 101670 42
2009-11-19 09:37:40 51°22.749 2°47.471 6.8 278 10.3 101670 42
2009-11-19 09:37:45 51°22.762 2°47.458 8.6 263 10.3 101680 41
2009-11-19 09:37:50 51°22.774 2°47.444 10.4 284 10.3 101680 41
2009-11-19 09:37:54 51°22.784 2°47.434 12.8 259 10.3 101670 43
2009-11-19 09:38:00 51°22.799 2°47.419 11.2 285 10.3 101670 43
2009-11-19 09:38:05 51°22.811 2°47.406 11.8 260 10.3 101680 40
2009-11-19 09:38:10 51°22.823 2°47.393 7 279 10.3 101680 40
2009-11-19 09:38:15 51°22.836 2°47.381 10.4 260 10.4 101690 42
2009-11-19 09:38:20 51°22.848 2°47.367 12 281 10.4 101690 42
2009-11-19 09:38:25 51°22.861 2°47.355 5.7 264 10.3 101670 41
2009-11-19 09:38:30 51°22.873 2°47.342 6.5 285 10.3 101670 41
2009-11-19 09:38:35 51°22.886 2°47.329 10.1 256 10.3 101680 44
2009-11-19 09:38:40 51°22.898 2°47.317 8 284 10.3 101680 44
2009-11-19 09:38:45 51°22.91 2°47.303 8.9 262 10.3 101670 45
2009-11-19 09:38:50 51°22.922 2°47.29 7.3 284 10.3 101670 45
2009-11-19 09:38:54 51°22.932 2°47.28 7.3 263 10.3 101690 45
2009-11-19 09:39:00 51°22.947 2°47.265 10.8 284 10.3 101690 45
2009-11-19 09:39:05 51°22.959 2°47.251 11.1 261 10.3 101690 40
2009-11-19 09:39:10 51°22.971 2°47.238 10.4 287 10.3 101690 40
2009-11-19 09:39:15 51°22.984 2°47.226 11 260 10.3 101690 41
2009-11-19 09:39:20 51°22.996 2°47.212 9 284 10.3 101690 41
2009-11-19 09:39:25 51°23.008 2°47.198 10.5 257 10.3 101690 42
2009-11-19 09:39:30 51°23.02 2°47.186 10.6 285 10.3 101690 42
2009-11-19 09:39:35 51°23.032 2°47.172 9.8 261 10.3 101690 42
2009-11-19 09:39:40 51°23.045 2°47.16 11.3 285 10.3 101690 42
2009-11-19 09:39:45 51°23.057 2°47.148 12 258 10.3 101670 44
2009-11-19 09:39:50 51°23.069 2°47.135 11.5 283 10.3 101670 44
2009-11-19 09:39:55 51°23.081 2°47.123 10.6 259 10.3 101660 41
2009-11-19 09:40:00 51°23.094 2°47.11 13.4 284 10.3 101660 41
2009-11-19 09:40:05 51°23.106 2°47.097 13.9 260 10.4 101680 44
2009-11-19 09:40:10 51°23.118 2°47.085 10.3 280 10.4 101680 44
2009-11-19 09:40:15 51°23.13 2°47.073 10 262 10.4 101660 42
2009-11-19 09:40:20 51°23.142 2°47.06 10 279 10.4 101660 42
2009-11-19 09:40:25 51°23.154 2°47.046 6.4 263 10.4 101680 42
2009-11-19 09:40:30 51°23.166 2°47.035 8.5 283 10.4 101680 42
2009-11-19 09:40:35 51°23.178 2°47.021 10.8 261 10.4 101690 44
2009-11-19 09:40:40 51°23.19 2°47.008 8.8 283 10.4 101690 44
2009-11-19 09:40:45 51°23.202 2°46.995 11.4 261 10.3 101690 40
2009-11-19 09:40:50 51°23.214 2°46.981 9.9 277 10.3 101690 40
2009-11-19 09:40:55 51°23.226 2°46.969 11.9 259 10.4 101690 44
2009-11-19 09:41:00 51°23.238 2°46.955 8.4 281 10.4 101690 44
2009-11-19 09:41:05 51°23.25 2°46.943 10.8 262 10.4 101680 41
2009-11-19 09:41:10 51°23.262 2°46.931 10.9 283 10.4 101680 41
2009-11-19 09:41:15 51°23.274 2°46.918 13.8 258 10.4 101680 41
2009-11-19 09:41:20 51°23.287 2°46.905 11.7 283 10.4 101680 41
2009-11-19 09:41:25 51°23.299 2°46.892 5.8 265 10.4 101680 41
2009-11-19 09:41:30 51°23.311 2°46.879 8.6 284 10.4 101680 41
2009-11-19 09:41:35 51°23.324 2°46.866 9.2 261 10.4 101680 43
2009-11-19 09:41:40 51°23.336 2°46.853 10.6 281 10.4 101680 43
2009-11-19 09:41:45 51°23.348 2°46.839 6.7 261 10.4 101680 39
2009-11-19 09:41:50 51°23.36 2°46.827 12.9 285 10.4 101680 39
2009-11-19 09:41:55 51°23.373 2°46.815 8.6 261 10.4 101680 40
2009-11-19 09:42:00 51°23.385 2°46.801 7.9 279 10.4 101680 40
2009-11-19 09:42:05 51°23.396 2°46.788 12.7 259 10.4 101670 40
2009-11-19 09:42:10 51°23.409 2°46.775 8.2 284 10.4 101670 40
2009-11-19 09:42:15 51°23.421 2°46.761 9.1 261 10.4 101690 45
2009-11-19 09:42:20 51°23.433 2°46.749 9.2 286 10.4 101690 45
2009-11-19 09:42:25 51°23.445 2°46.736 10.9 261 10.4 101690 43
2009-11-19 09:42:30 51°23.458 2°46.724 10.2 281 10.4 101690 43
2009-11-19 09:42:35 51°23.47 2°46.71 8 262 10.5 101670 45
2009-11-19 09:42:40 51°23.483 2°46.701 7.4 278 10.5 101670 45
2009-11-19 09:42:45 51°23.495 2°46.688 7.2 262 10.4 101690 41
2009-11-19 09:42:50 51°23.508 2°46.678 9.2 278 10.4 101690 41
2009-11-19 09:42:55 51°23.519 2°46.665 11.2 262 10.4 101700 40
2009-11-19 09:43:00 51°23.532 2°46.653 8.7 284 10.4 101700 40
2009-11-19 09:43:05 51°23.544 2°46.64 9.6 259 10.4 101690 40
2009-11-19 09:43:10 51°23.556 2°46.627 9.3 283 10.4 101690 40
2009-11-19 09:43:15 51°23.568 2°46.615 10 260 10.4 101690 45
2009-11-19 09:43:20 51°23.58 2°46.602 6.4 279 10.4 101690 45
2009-11-19 09:43:25 51°23.592 2°46.59 8.1 261 10.5 101670 42
2009-11-19 09:43:30 51°23.604 2°46.577 8.4 280 10.5 101670 42
2009-11-19 09:43:35 51°23.616 2°46.564 7.3 266 10.5 101680 43
2009-11-19 09:43:40 51°23.629 2°46.551 9.3 279 10.5 101680 43
2009-11-19 09:43:45 51°23.641 2°46.538 11.1 257 10.5 101670 45
2009-11-19 09:43:50 51°23.653 2°46.524 11.4 282 10.5 101670 45
2009-11-19 09:43:55 51°23.665 2°46.511 11.9 262 10.5 101690 41
2009-11-19 09:44:00 51°23.678 2°46.499 11.4 285 10.5 101690 41
2009-11-19 09:44:05 51°23.69 2°46.485 12.8 258 10.6 101680 45
2009-11-19 09:44:10 51°23.702 2°46.472 10.4 281 10.6 101680 45
2009-11-19 09:44:15 51°23.714 2°46.459 11.4 261 10.6 101670 45
2009-11-19 09:44:20 51°23.726 2°46.446 10.8 278 10.6 101670 45
2009-11-19 09:44:25 51°23.739 2°46.434 7.6 262 10.6 101680 43
2009-11-19 09:44:30 51°23.751 2°46.42 8.7 281 10.6 101680 43
2009-11-19 09:44:34 51°23.76 2°46.409 7.7 263 10.6 101690 40
2009-11-19 09:44:40 51°23.775 2°46.395 7.2 282 10.6 101690 40
2009-11-19 09:44:45 51°23.788 2°46.381 8.3 264 10.5 101690 41
2009-11-19 09:44:50 51°23.8 2°46.368 6.7 279 10.5 101690 41
2009-11-19 09:44:55 51°23.812 2°46.355 7.3 261 10.5 101700 42
2009-11-19 09:45:00 51°23.824 2°46.342 9.1 285 10.5 101700 42
2009-11-19 09:45:05 51°23.837 2°46.329 10.1 257 10.5 101700 43
2009-11-19 09:45:10 51°23.849 2°46.316 11.8 279 10.5 101700 43
2009-11-19 09:45:15 51°23.86 2°46.303 9.1 261 10.5 101690 40
2009-11-19 09:45:20 51°23.873 2°46.291 10.9 286 10.5 101690 40
2009-11-19 09:45:25 51°23.884 2°46.278 8 262 10.6 101690 43
2009-11-19 09:45:30 51°23.897 2°46.268 7.8 286 10.6 101690 43
2009-11-19 09:45:35 51°23.909 2°46.257 6.6 264 10.6 101670 41
2009-11-19 09:45:40 51°23.922 2°46.246 6.7 285 10.6 101670 41
2009-11-19 09:45:45 51°23.934 2°46.237 7.9 257 10.6 101660 45
2009-11-19 09:45:50 51°23.947 2°46.226 5.6 279 10.6 101660 45
2009-11-19 09:45:55 51°23.96 2°46.217 8.7 263 10.6 101680 45
2009-11-19 09:46:00 51°23.973 2°46.209 8.1 280 10.6 101680 45
2009-11-19 09:46:05 51°23.986 2°46.201 11.2 260 10.6 101690 42
2009-11-19 09:46:10 51°24 2°46.193 7.7 283 10.6 101690 42
2009-11-19 09:46:15 51°24.013 2°46.188 8.4 266 10.6 101690 40
2009-11-19 09:46:20 51°24.027 2°46.182 6.7 283 10.6 101690 40
2009-11-19 09:46:25 51°24.04 2°46.178 8.6 269 10.6 101680 46
2009-11-19 09:46:30 51°24.054 2°46.176 7.1 279 10.6 101680 46
2009-11-19 09:46:34 51°24.065 2°46.171 9 28 10.6 101690 40
2009-11-19 09:46:40 51°24.081 2°46.17 9.1 75 10.6 101690 40
2009-11-19 09:46:45 51°24.095 2°46.167 6.9 269 10.6 101680 45
2009-11-19 09:46:50 51°24.11 2°46.165 8.5 76 10.6 101680 45
2009-11-19 09:46:55 51°24.123 2°46.163 7.4 21 10.6 101700 45
2009-11-19 09:47:00 51°24.137 2°46.164 6.6 288 10.6 101700 45
2009-11-19 09:47:05 51°24.151 2°46.16 8 18 10.6 101690 40
2009-11-19 09:47:10 51°24.165 2°46.161 6.5 75 10.6 101690 40
2009-11-19 09:47:15 51°24.178 2°46.158 7.9 28 10.6 101690 44
2009-11-19 09:47:20 51°24.192 2°46.159 9 82 10.6 101690 44
2009-11-19 09:47:25 51°24.205 2°46.158 8.6 23 10.7 101680 41
2009-11-19 09:47:30 51°24.219 2°46.162 7.5 79 10.7 101680 41
2009-11-19 09:47:35 51°24.232 2°46.165 7.2 26 10.7 101680 41
2009-11-19 09:47:40 51°24.245 2°46.168 7 81 10.7 101680 41
2009-11-19 09:47:45 51°24.257 2°46.176 8.4 21 10.6 101700 45
2009-11-19 09:47:50 51°24.27 2°46.182 8.1 78 10.6 101700 45
2009-11-19 09:47:55 51°24.283 2°46.188 6.7 26 10.6 101690 41
2009-11-19 09:48:00 51°24.294 2°46.199 8.9 80 10.6 101690 41
2009-11-19 09:48:05 51°24.307 2°46.204 5.6 20 10.6 101700 45
2009-11-19 09:48:10 51°24.318 2°46.216 4.1 79 10.6 101700 45
2009-11-19 09:48:15 51°24.33 2°46.224 6.3 25 10.6 101690 43
2009-11-19 09:48:20 51°24.341 2°46.236 5.7 75 10.6 101690 43
2009-11-19 09:48:25 51°24.353 2°46.246 7.2 22 10.6 101680 42
2009-11-19 09:48:30 51°24.362 2°46.261 7 75 10.6 101680 42
2009-11-19 09:48:35 51°24.373 2°46.272 7.4 21 10.8 101680 45
2009-11-19 09:48:40 51°24.384 2°46.284 6.2 81 10.8 101680 45
2009-11-19 09:48:45 51°24.393 2°46.3 7.2 24 10.7 101680 42
2009-11-19 09:48:50 51°24.403 2°46.311 7.1 80 10.7 101680 42
2009-11-19 09:48:55 51°24.412 2°46.327 7.4 24 10.8 101680 45
2009-11-19 09:49:00 51°24.422 2°46.341 7.8 44 10.8 101680 45
2009-11-19 09:49:05 51°24.43 2°46.356 8.6 44 10.8 101680 41
2009-11-19 09:49:10 51°24.44 2°46.371 7.8 76 10.8 101680 41
2009-11-19 09:49:15 51°24.45 2°46.387 7 25 10.8 101680 41
2009-11-19 09:49:20 51°24.458 2°46.401 7 40 10.8 101680 41
2009-11-19 09:49:25 51°24.467 2°46.418 7.1 45 10.8 101670 40
2009-11-19 09:49:30 51°24.477 2°46.433 7.9 42 10.8 101670 40
2009-11-19 09:49:35 51°24.484 2°46.45 7.9 38 10.8 101670 40
2009-11-19 09:49:40 51°24.493 2°46.467 7.5 45 10.8 101670 40
2009-11-19 09:49:45 51°24.502 2°46.482 8.1 28 10.8 101670 45
2009-11-19 09:49:50 51°24.508 2°46.5 7.4 75 10.8 101670 45
2009-11-19 09:49:54 51°24.516 2°46.512 8.6 44 10.8 101670 45
2009-11-19 09:50:00 51°24.526 2°46.532 7.1 41 10.8 101670 45
2009-11-19 09:50:05 51°24.533 2°46.55 6.3 44 10.7 101670 40
2009-11-19 09:50:10 51°24.542 2°46.566 8.1 42 10.7 101670 40
2009-11-19 09:50:15 51°24.549 2°46.583 7.1 41 10.7 101670 42
2009-11-19 09:50:20 51°24.556 2°46.6 8.2 79 10.7 101670 42
2009-11-19 09:50:25 51°24.565 2°46.616 8.3 32 10.7 101670 42
2009-11-19 09:50:30 51°24.572 2°46.633 8.7 81 10.7 101670 42
2009-11-19 09:50:35 51°24.58 2°46.65 8.1 34 10.7 101660 40
2009-11-19 09:50:40 51°24.589 2°46.667 6.6 38 10.7 101660 40
2009-11-19 09:50:45 51°24.595 2°46.685 6.2 40 10.7 101670 41
2009-11-19 09:50:50 51°24.604 2°46.701 6.5 -999 10.7 101670 41
2009-11-19 09:50:55 51°24.612 2°46.718 6.1 41 10.7 101670 45
2009-11-19 09:51:00 51°24.619 2°46.735 7.5 34 10.7 101670 45
2009-11-19 09:51:05 51°24.628 2°46.751 9.3 34 10.7 101670 40
2009-11-19 09:51:10 51°24.636 2°46.768 9.2 80 10.7 101670 40
2009-11-19 09:51:15 51°24.644 2°46.784 6.7 31 10.7 101660 39
2009-11-19 09:51:20 51°24.654 2°46.798 9.9 81 10.7 101660 39
2009-11-19 09:51:25 51°24.662 2°46.814 7.4 38 10.7 101670 40
2009-11-19 09:51:30 51°24.671 2°46.829 6.7 45 10.7 101670 40
2009-11-19 09:51:35 51°24.681 2°46.842 7.4 40 10.7 101680 43
2009-11-19 09:51:40 51°24.69 2°46.858 7.8 79 10.7 101680 43
2009-11-19 09:51:45 51°24.701 2°46.871 8.6 33 10.7 101670 40
2009-11-19 09:51:50 51°24.711 2°46.885 9.2 76 10.7 101670 40
2009-11-19 09:51:55 51°24.721 2°46.898 6.5 34 10.7 101670 41
2009-11-19 09:52:00 51°24.732 2°46.911 8.8 80 10.7 101670 41
2009-11-19 09:52:05 51°24.742 2°46.926 4.8 21 10.7 101680 41
2009-11-19 09:52:10 51°24.754 2°46.935 7.6 81 10.7 101680 41
2009-11-19 09:52:15 51°24.764 2°46.948 6.9 37 10.6 101670 40
2009-11-19 09:52:20 51°24.776 2°46.961 7.2 76 10.6 101670 40
2009-11-19 09:52:25 51°24.787 2°46.972 6.9 32 10.7 101680 39
2009-11-19 09:52:30 51°24.797 2°46.985 5.8 80 10.7 101680 39
2009-11-19 09:52:35 51°24.809 2°46.997 6.6 38 10.7 101680 40
2009-11-19 09:52:40 51°24.819 2°47.011 6.2 76 10.7 101680 40
2009-11-19 09:52:45 51°24.831 2°47.021 7.1 37 10.7 101680 45
2009-11-19 09:52:50 51°24.841 2°47.036 9 -999 10.7 101680 45
2009-11-19 09:52:55 51°24.854 2°47.047 5.3 38 10.7 101680 40
2009-11-19 09:53:00 51°24.864 2°47.061 5.7 75 10.7 101680 40
2009-11-19 09:53:05 51°24.876 2°47.073 6.9 36 10.8 101680 41
2009-11-19 09:53:10 51°24.888 2°47.085 5.9 76 10.8 101680 41
2009-11-19 09:53:15 51°24.898 2°47.099 7.7 22 10.8 101680 39
2009-11-19 09:53:20 51°24.91 2°47.111 5.5 81 10.8 101680 39
2009-11-19 09:53:25 51°24.921 2°47.123 8.5 33 10.8 101680 45
2009-11-19 09:53:30 51°24.932 2°47.136 5.7 81 10.8 101680 45
2009-11-19 09:53:35 51°24.944 2°47.147 5.7 34 10.8 101690 39
2009-11-19 09:53:40 51°24.954 2°47.161 6.6 77 10.8 101690 39
2009-11-19 09:53:45 51°24.966 2°47.172 5.1 37 10.8 101680 45
2009-11-19 09:53:50 51°24.977 2°47.184 8.3 76 10.8 101680 45
2009-11-19 09:53:55 51°24.987 2°47.198 6.8 32 10.9 101680 40
2009-11-19 09:54:00 51°24.998 2°47.21 5.6 75 10.9 101680 40
2009-11-19 09:54:05 51°25.01 2°47.221 5.9 33 11 101680 45
2009-11-19 09:54:10 51°25.02 2°47.238 5.8 77 11 101680 45
2009-11-19 09:54:15 51°25.032 2°47.246 5 31 10.9 101680 43
2009-11-19 09:54:20 51°25.041 2°47.262 5.5 75 10.9 101680 43
2009-11-19 09:54:25 51°25.053 2°47.272 5.7 37 11 101670 41
2009-11-19 09:54:30 51°25.063 2°47.286 5.8 80 11 101670 41
2009-11-19 09:54:35 51°25.075 2°47.298 5.6 38 11.2 101680 43
2009-11-19 09:54:40 51°25.085 2°47.312 6.2 82 11.2 101680 43
2009-11-19 09:54:45 51°25.097 2°47.324 4.6 37 11.3 101680 45
2009-11-19 09:54:50 51°25.107 2°47.337 5.2 -999 11.3 101680 45
2009-11-19 09:54:55 51°25.118 2°47.351 4.2 38 11.4 101680 40
2009-11-19 09:55:00 51°25.129 2°47.362 5.1 76 11.4 101680 40